Weather History for KMAI - February, 2013

Change the Weather History Date:

Friday, February 15, 2013

  Actual Average Record
Temperature  
Mean Temperature 50 °F 55 °F  
Max Temperature 66 °F 66 °F - ()
Min Temperature 33 °F 43 °F - ()
Degree Days  
Heating Degree Days 15    
Month to date heating degree days 135  
Since 1 July heating degree days 861  
Cooling Degree Days 0    
Month to date cooling degree days 5  
Year to date cooling degree days 58  
Moisture  
Dew Point 36 °F    
Average Humidity 67    
Maximum Humidity 100    
Minimum Humidity 34    
Precipitation  
Precipitation 0.00 in 0.17 in - ()
Month to date precipitation 2.77 2.54  
Year to date precipitation 3.73 7.58  
Sea Level Pressure  
Sea Level Pressure 30.08 in    
Wind  
Wind Speed 2 mph (NNE)    
Max Wind Speed 10 mph    
Max Gust Speed 29 mph    
Visibility 6 miles    
Events Fog    
T = Trace of Precipitation, MM = Missing Value Source: NWS Daily Summary

Daily Weather History Graph

Daily Weather History Graph

Search for Another Location

Airport or City:

Trip Planner

Search our weather history database for the weather conditions in past years. The results will help you decide how hot, cold, wet, or windy it might be!

Date:

Astronomy

Feb. 15, 2013 Rise Set
Actual Time 6:21 AM CST 5:28 PM CST
Civil Twilight 5:56 AM CST 5:53 PM CST
Nautical Twilight 5:28 AM CST 6:21 PM CST
Astronomical Twilight 5:00 AM CST 6:49 PM CST
Moon 9:23 AM CST (2/15) 11:00 PM CST (2/15)
Length of Visible Light 11h 56m
Length of Day
11h 07m
Waxing Crescent, 30% of the Moon is Illuminated
Feb 15
Waxing Crescent
Feb 17
First Quarter
Feb 25
Full
Mar 4
Last Quarter
Mar 11
New

Hourly Weather History & Observations

Time (CST) Temp. Dew Point Humidity Pressure Visibility Wind Dir Wind Speed Gust Speed Precip Events Conditions
12:34 AM 35.6 °F 33.8 °F 93% 30.08 in 10.0 mi Calm Calm - N/A   Scattered Clouds
12:43 AM 35.6 °F 33.8 °F 93% 30.08 in 9.0 mi Calm Calm - N/A   Mostly Cloudy
12:53 AM 36.0 °F 34.0 °F 93% 30.08 in 8.0 mi Calm Calm - N/A   Mostly Cloudy
1:15 AM 35.6 °F 33.8 °F 93% 30.09 in 1.8 mi Calm Calm - N/A   Overcast
1:23 AM 35.6 °F 35.6 °F 100% 30.08 in 0.5 mi Calm Calm - N/A Fog Fog
1:32 AM 35.6 °F 35.6 °F 100% 30.08 in 2.0 mi Calm Calm - N/A   Overcast
1:38 AM 35.6 °F 33.8 °F 93% 30.08 in 0.8 mi Calm Calm - N/A   Mist
1:53 AM 35.1 °F 34.0 °F 96% 30.09 in 0.2 mi Calm Calm - N/A Fog Fog
2:35 AM 35.6 °F 33.8 °F 93% 30.09 in 2.5 mi Calm Calm - N/A   Mostly Cloudy
2:41 AM 35.6 °F 33.8 °F 93% 30.09 in 5.0 mi Calm Calm - N/A   Scattered Clouds
2:53 AM 35.1 °F 34.0 °F 96% 30.09 in 1.8 mi Calm Calm - N/A   Partly Cloudy
3:03 AM 33.8 °F 33.8 °F 100% 30.09 in 1.5 mi Calm Calm - N/A   Mostly Cloudy
3:08 AM 33.8 °F 33.8 °F 100% 30.09 in 4.0 mi Calm Calm - N/A   Mostly Cloudy
3:16 AM 33.8 °F 33.8 °F 100% 30.09 in 6.0 mi Calm Calm - N/A   Scattered Clouds
3:53 AM 33.1 °F 30.9 °F 92% 30.10 in 9.0 mi Calm Calm - N/A   Clear
4:34 AM 33.8 °F 30.2 °F 87% 30.10 in 10.0 mi Calm Calm - N/A   Scattered Clouds
4:44 AM 33.8 °F 32.0 °F 93% 30.10 in 10.0 mi Calm Calm - N/A   Mostly Cloudy
4:53 AM 34.0 °F 32.0 °F 92% 30.10 in 10.0 mi Calm Calm - N/A   Scattered Clouds
5:18 AM 33.8 °F 32.0 °F 93% 30.11 in 9.0 mi Calm Calm - N/A   Mostly Cloudy
5:23 AM 33.8 °F 32.0 °F 93% 30.11 in 1.2 mi Calm Calm - N/A   Mostly Cloudy
5:30 AM 33.8 °F 33.8 °F 100% 30.11 in 0.2 mi Calm Calm - N/A Fog Fog
5:53 AM 34.0 °F 33.1 °F 96% 30.12 in 0.2 mi Calm Calm - N/A Fog Fog
6:53 AM 34.0 °F 33.1 °F 96% 30.13 in 0.2 mi Calm Calm - N/A Fog Fog
7:28 AM 37.4 °F 37.4 °F 100% 30.14 in 2.0 mi Calm Calm - N/A   Mostly Cloudy
7:34 AM 37.4 °F 37.4 °F 100% 30.14 in 4.0 mi Calm Calm - N/A   Scattered Clouds
7:53 AM 41.0 °F 41.0 °F 100% 30.15 in 6.0 mi Calm Calm - N/A   Clear
8:53 AM 50.0 °F 43.0 °F 77% 30.15 in 10.0 mi NNW 3.5 mph - N/A   Clear
9:53 AM 55.9 °F 42.1 °F 60% 30.15 in 10.0 mi NE 4.6 mph - N/A   Clear
10:53 AM 60.1 °F 37.0 °F 42% 30.13 in 10.0 mi NE 11.5 mph - N/A   Clear
11:53 AM 62.1 °F 36.0 °F 38% 30.10 in 10.0 mi Calm Calm - N/A   Clear
12:53 PM 63.0 °F 35.1 °F 35% 30.06 in 10.0 mi Calm Calm - N/A   Clear
1:53 PM 63.0 °F 36.0 °F 37% 30.03 in 10.0 mi Variable 3.5 mph - N/A   Clear
2:53 PM 64.0 °F 35.1 °F 34% 30.03 in 10.0 mi Variable 4.6 mph - N/A   Clear
3:53 PM 64.9 °F 35.1 °F 33% 30.02 in 10.0 mi North 5.8 mph - N/A   Clear
4:53 PM 63.0 °F 36.0 °F 37% 30.01 in 10.0 mi North 3.5 mph - N/A   Clear
5:53 PM 55.9 °F 39.0 °F 53% 30.01 in 10.0 mi Calm Calm - N/A   Clear
6:53 PM 50.0 °F 39.9 °F 68% 30.03 in 10.0 mi Calm Calm - N/A   Clear
7:53 PM 46.9 °F 42.1 °F 83% 30.04 in 10.0 mi Calm Calm - N/A   Clear
8:53 PM 48.0 °F 39.9 °F 74% 30.04 in 10.0 mi Calm Calm - N/A   Clear
9:53 PM 45.0 °F 41.0 °F 86% 30.04 in 10.0 mi Calm Calm - N/A   Clear
10:53 PM 46.0 °F 39.9 °F 79% 30.04 in 10.0 mi Calm Calm - N/A   Clear
11:53 PM 44.1 °F 39.9 °F 85% 30.03 in 10.0 mi Calm Calm - N/A   Clear